QPF
0.03 0.03 0.03 0.05 0.07 0.07 0.05 0.03 0.02 0.02 0.02 0.01 0.02 0.02 0.03 0.04 0.05 0.04 0.03 0.04 0.04 0.04 0.04 0.03 0.03 0.03 0.03 0.04 0.04 0.03 0.02 0.02 0.01 0.01 0.01 0.01 0.02 0.03
0.03 0.03 0.02 0.03 0.04 0.05 0.06 0.04 0.03 0.02 0.03 0.02 0.02 0.02 0.02 0.03 0.04 0.04 0.05 0.06 0.05 0.07 0.08 0.06 0.05 0.05 0.05 0.05 0.04 0.02 0.02 0.01 0.01 0.01 0.01 0.01 0.02 0.03
0.02 0.02 0.02 0.03 0.04 0.04 0.05 0.04 0.02 0.02 0.04 0.05 0.05 0.05 0.03 0.03 0.05 0.05 0.06 0.07 0.07 0.08 0.08 0.08 0.07 0.07 0.06 0.04 0.03 0.02 0.01 0.01 0.01 0.01 0.01 0.01 0.01 0.03
0.03 0.03 0.03 0.03 0.03 0.02 0.03 0.04 0.02 0.02 0.02 0.02 0.02 0.04 0.03 0.03 0.03 0.03 0.03 0.04 0.05 0.06 0.07 0.06 0.07 0.06 0.05 0.03 0.02 0.02 0.01 0.01 0.01 0.00 0.00 0.00 0.00 0.01
0.03 0.03 0.03 0.03 0.02 0.02 0.02 0.03 0.02 0.02 0.02 0.01 0.02 0.02 0.03 0.04 0.07 0.04 0.02 0.02 0.04 0.06 0.06 0.06 0.06 0.04 0.03 0.02 0.01 0.01 0.01 0.00 0.00 0.00 0.00 0.00 0.00 0.01
0.03 0.03 0.03 0.03 0.03 0.03 0.03 0.03 0.02 0.02 0.02 0.02 0.01 0.02 0.03 0.03 0.02 0.02 0.02 0.01 0.02 0.02 0.03 0.04 0.05 0.05 0.05 0.04 0.02 0.01 0.01 0.00 0.00 0.00 0.00 0.00 0.00 0.00
0.06 0.06 0.05 0.05 0.05 0.06 0.05 0.04 0.03 0.03 0.02 0.02 0.02 0.02 0.01 0.01 0.02 0.02 0.02 0.02 0.02 0.02 0.01 0.02 0.02 0.02 0.02 0.02 0.03 0.03 0.01 0.01 0.01 0.00 0.00 0.00 0.00 0.00
0.06 0.08 0.09 0.06 0.06 0.06 0.06 0.06 0.06 0.05 0.03 0.03 0.03 0.03 0.02 0.02 0.03 0.03 0.03 0.03 0.03 0.02 0.02 0.02 0.01 0.01 0.02 0.01 0.01 0.03 0.03 0.02 0.01 0.01 0.00 0.00 0.00 0.00
0.06 0.09 0.12 0.11 0.09 0.07 0.07 0.07 0.06 0.07 0.07 0.06 0.06 0.06 0.06 0.05 0.05 0.06 0.06 0.06 0.06 0.06 0.04 0.02 0.01 0.01 0.01 0.01 0.01 0.02 0.03 0.03 0.02 0.01 0.01 0.00 0.00 0.00
0.04 0.06 0.09 0.12 0.11 0.08 0.07 0.05 0.05 0.06 0.07 0.06 0.04 0.05 0.05 0.06 0.07 0.08 0.07 0.06 0.05 0.05 0.04 0.03 0.01 0.01 0.00 0.00 0.01 0.01 0.02 0.03 0.03 0.02 0.02 0.01 0.01 0.01
0.04 0.05 0.04 0.05 0.08 0.08 0.06 0.06 0.05 0.06 0.08 0.08 0.06 0.05 0.05 0.05 0.06 0.06 0.06 0.05 0.04 0.03 0.03 0.03 0.02 0.01 0.01 0.01 0.01 0.02 0.02 0.04 0.03 0.02 0.02 0.02 0.01 0.01
0.04 0.03 0.03 0.03 0.05 0.06 0.04 0.04 0.04 0.05 0.07 0.07 0.07 0.06 0.05 0.05 0.06 0.06 0.06 0.06 0.05 0.04 0.03 0.03 0.02 0.02 0.01 0.01 0.02 0.03 0.04 0.05 0.04 0.03 0.02 0.02 0.02 0.02
0.03 0.02 0.03 0.03 0.03 0.05 0.04 0.03 0.03 0.04 0.05 0.06 0.06 0.07 0.07 0.05 0.05 0.05 0.05 0.04 0.04 0.03 0.02 0.02 0.02 0.02 0.03 0.02 0.03 0.04 0.06 0.09 0.07 0.05 0.03 0.03 0.03 0.03
0.02 0.02 0.02 0.02 0.03 0.04 0.05 0.03 0.04 0.04 0.03 0.04 0.05 0.05 0.06 0.06 0.05 0.04 0.03 0.03 0.03 0.02 0.03 0.03 0.02 0.03 0.04 0.04 0.04 0.05 0.06 0.09 0.10 0.08 0.05 0.04 0.03 0.03
0.02 0.02 0.02 0.02 0.02 0.03 0.05 0.05 0.04 0.03 0.02 0.02 0.03 0.03 0.03 0.05 0.06 0.05 0.04 0.03 0.03 0.03 0.03 0.03 0.03 0.03 0.05 0.05 0.05 0.07 0.08 0.09 0.11 0.08 0.07 0.05 0.03 0.02
0.02 0.03 0.03 0.03 0.03 0.04 0.05 0.05 0.05 0.03 0.02 0.02 0.02 0.03 0.04 0.03 0.03 0.03 0.02 0.02 0.02 0.02 0.02 0.02 0.01 0.03 0.04 0.05 0.06 0.07 0.09 0.10 0.11 0.09 0.07 0.06 0.03 0.02
0.03 0.02 0.03 0.03 0.04 0.04 0.05 0.06 0.05 0.04 0.03 0.02 0.02 0.02 0.03 0.02 0.01 0.02 0.02 0.02 0.02 0.02 0.02 0.01 0.01 0.02 0.02 0.04 0.06 0.07 0.08 0.08 0.10 0.09 0.07 0.05 0.03 0.02
0.02 0.01 0.02 0.03 0.05 0.04 0.04 0.04 0.04 0.04 0.03 0.03 0.03 0.03 0.01 0.01 0.01 0.01 0.01 0.01 0.02 0.02 0.02 0.03 0.03 0.03 0.03 0.03 0.05 0.06 0.08 0.09 0.10 0.09 0.05 0.05 0.04 0.03
0.01 0.01 0.01 0.02 0.03 0.04 0.04 0.05 0.05 0.05 0.05 0.05 0.05 0.04 0.04 0.03 0.02 0.01 0.01 0.01 0.01 0.01 0.01 0.02 0.02 0.02 0.02 0.03 0.03 0.04 0.06 0.08 0.09 0.08 0.05 0.03 0.03 0.03
0.01 0.01 0.01 0.02 0.03 0.03 0.04 0.05 0.05 0.05 0.05 0.05 0.04 0.04 0.04 0.04 0.04 0.03 0.02 0.01 0.01 0.01 0.02 0.01 0.01 0.02 0.02 0.02 0.03 0.05 0.07 0.08 0.09 0.08 0.06 0.04 0.02 0.02
0.01 0.01 0.01 0.02 0.02 0.03 0.03 0.03 0.04 0.04 0.04 0.03 0.03 0.03 0.03 0.03 0.03 0.03 0.02 0.02 0.02 0.01 0.02 0.02 0.02 0.03 0.03 0.03 0.03 0.03 0.05 0.07 0.08 0.07 0.06 0.05 0.03 0.02
0.01 0.01 0.01 0.02 0.02 0.03 0.03 0.03 0.03 0.03 0.03 0.04 0.03 0.03 0.03 0.03 0.03 0.03 0.02 0.02 0.02 0.02 0.02 0.02 0.03 0.03 0.03 0.04 0.04 0.04 0.04 0.04 0.05 0.06 0.05 0.04 0.03 0.02
0.01 0.01 0.01 0.02 0.02 0.03 0.04 0.04 0.03 0.03 0.03 0.04 0.04 0.03 0.03 0.03 0.03 0.02 0.02 0.02 0.02 0.01 0.01 0.02 0.03 0.03 0.04 0.04 0.03 0.03 0.03 0.03 0.03 0.04 0.04 0.04 0.03 0.02
MSLP
1008.89 1009.10 1009.32 1009.52 1009.70 1009.84 1009.95 1010.02 1010.07 1010.12 1010.16 1010.21 1010.27 1010.33 1010.38 1010.41 1010.42 1010.40 1010.37 1010.34 1010.30 1010.29 1010.28 1010.27 1010.26 1010.20 1010.09 1009.91 1009.64 1009.30 1008.91 1008.50 1008.10 1007.75 1007.48 1007.31 1007.24 1007.28
1008.52 1008.63 1008.75 1008.88 1009.01 1009.12 1009.24 1009.35 1009.47 1009.59 1009.73 1009.87 1010.01 1010.13 1010.22 1010.28 1010.30 1010.30 1010.27 1010.24 1010.22 1010.23 1010.27 1010.32 1010.38 1010.40 1010.37 1010.27 1010.07 1009.79 1009.45 1009.06 1008.67 1008.31 1008.02 1007.82 1007.72 1007.72
1008.25 1008.24 1008.25 1008.29 1008.35 1008.43 1008.54 1008.68 1008.85 1009.04 1009.26 1009.49 1009.70 1009.89 1010.04 1010.14 1010.18 1010.18 1010.15 1010.12 1010.11 1010.13 1010.19 1010.28 1010.39 1010.48 1010.53 1010.51 1010.39 1010.20 1009.92 1009.59 1009.24 1008.91 1008.62 1008.41 1008.29 1008.27
1008.12 1007.99 1007.89 1007.83 1007.82 1007.86 1007.95 1008.10 1008.30 1008.55 1008.83 1009.13 1009.41 1009.66 1009.86 1009.98 1010.05 1010.06 1010.03 1010.00 1009.98 1010.00 1010.06 1010.17 1010.30 1010.43 1010.54 1010.59 1010.56 1010.45 1010.26 1010.02 1009.74 1009.46 1009.21 1009.02 1008.90 1008.86
1008.14 1007.91 1007.72 1007.58 1007.50 1007.49 1007.55 1007.70 1007.91 1008.18 1008.50 1008.84 1009.16 1009.45 1009.68 1009.84 1009.93 1009.94 1009.92 1009.87 1009.84 1009.83 1009.88 1009.98 1010.11 1010.26 1010.40 1010.51 1010.55 1010.53 1010.44 1010.28 1010.10 1009.90 1009.71 1009.57 1009.48 1009.46
1008.31 1008.01 1007.76 1007.56 1007.43 1007.38 1007.41 1007.53 1007.72 1007.99 1008.31 1008.65 1008.99 1009.30 1009.54 1009.72 1009.81 1009.84 1009.81 1009.75 1009.69 1009.66 1009.67 1009.73 1009.84 1009.98 1010.13 1010.27 1010.36 1010.42 1010.41 1010.36 1010.28 1010.18 1010.08 1010.01 1009.97 1009.97
1008.62 1008.30 1008.01 1007.78 1007.62 1007.54 1007.53 1007.62 1007.78 1008.01 1008.29 1008.60 1008.92 1009.21 1009.45 1009.62 1009.72 1009.74 1009.70 1009.63 1009.55 1009.48 1009.44 1009.46 1009.52 1009.62 1009.75 1009.89 1010.02 1010.13 1010.21 1010.25 1010.27 1010.27 1010.27 1010.27 1010.30 1010.35
1009.06 1008.75 1008.47 1008.24 1008.07 1007.96 1007.93 1007.96 1008.07 1008.23 1008.45 1008.71 1008.97 1009.22 1009.42 1009.58 1009.66 1009.68 1009.63 1009.54 1009.43 1009.32 1009.23 1009.19 1009.19 1009.24 1009.33 1009.45 1009.59 1009.73 1009.86 1009.98 1010.09 1010.19 1010.28 1010.37 1010.46 1010.56
1009.63 1009.36 1009.12 1008.92 1008.75 1008.63 1008.56 1008.54 1008.58 1008.67 1008.80 1008.97 1009.16 1009.34 1009.50 1009.62 1009.68 1009.68 1009.62 1009.51 1009.37 1009.22 1009.09 1008.98 1008.91 1008.90 1008.93 1009.02 1009.14 1009.29 1009.46 1009.63 1009.81 1009.98 1010.15 1010.31 1010.46 1010.61
1010.33 1010.13 1009.94 1009.77 1009.62 1009.50 1009.40 1009.33 1009.29 1009.30 1009.34 1009.41 1009.50 1009.61 1009.71 1009.78 1009.81 1009.78 1009.71 1009.59 1009.42 1009.24 1009.05 1008.88 1008.75 1008.66 1008.64 1008.67 1008.76 1008.90 1009.07 1009.27 1009.48 1009.70 1009.92 1010.12 1010.32 1010.50
1011.19 1011.04 1010.91 1010.77 1010.64 1010.52 1010.39 1010.27 1010.17 1010.09 1010.04 1010.02 1010.02 1010.05 1010.07 1010.09 1010.09 1010.04 1009.94 1009.80 1009.61 1009.39 1009.16 1008.94 1008.74 1008.60 1008.50 1008.48 1008.52 1008.62 1008.77 1008.97 1009.18 1009.41 1009.64 1009.87 1010.08 1010.27
1012.17 1012.08 1011.98 1011.87 1011.76 1011.63 1011.48 1011.32 1011.17 1011.02 1010.88 1010.78 1010.71 1010.65 1010.62 1010.59 1010.54 1010.46 1010.34 1010.18 1009.96 1009.71 1009.44 1009.17 1008.92 1008.71 1008.55 1008.46 1008.44 1008.49 1008.60 1008.76 1008.95 1009.15 1009.37 1009.57 1009.76 1009.94
1013.26 1013.19 1013.11 1013.02 1012.91 1012.77 1012.61 1012.42 1012.23 1012.03 1011.84 1011.67 1011.53 1011.42 1011.33 1011.25 1011.16 1011.05 1010.90 1010.71 1010.47 1010.19 1009.88 1009.57 1009.26 1008.99 1008.77 1008.61 1008.52 1008.51 1008.55 1008.65 1008.78 1008.93 1009.09 1009.25 1009.39 1009.53
1014.40 1014.32 1014.25 1014.15 1014.04 1013.90 1013.72 1013.52 1013.30 1013.08 1012.86 1012.65 1012.47 1012.31 1012.18 1012.05 1011.92 1011.77 1011.59 1011.36 1011.09 1010.78 1010.43 1010.07 1009.72 1009.39 1009.10 1008.88 1008.72 1008.62 1008.59 1008.60 1008.66 1008.73 1008.81 1008.89 1008.96 1009.04
1015.50 1015.41 1015.32 1015.21 1015.09 1014.95 1014.77 1014.57 1014.35 1014.12 1013.89 1013.67 1013.46 1013.27 1013.10 1012.93 1012.75 1012.56 1012.34 1012.07 1011.76 1011.41 1011.02 1010.62 1010.22 1009.84 1009.49 1009.20 1008.96 1008.79 1008.66 1008.59 1008.54 1008.51 1008.50 1008.49 1008.47 1008.47
1016.51 1016.40 1016.28 1016.16 1016.04 1015.89 1015.73 1015.54 1015.33 1015.11 1014.89 1014.66 1014.44 1014.23 1014.02 1013.81 1013.59 1013.35 1013.08 1012.76 1012.40 1012.01 1011.58 1011.13 1010.69 1010.26 1009.86 1009.50 1009.19 1008.93 1008.72 1008.54 1008.40 1008.27 1008.16 1008.04 1007.93 1007.83
1017.38 1017.25 1017.12 1016.99 1016.86 1016.73 1016.58 1016.41 1016.23 1016.03 1015.82 1015.59 1015.36 1015.13 1014.89 1014.63 1014.36 1014.06 1013.73 1013.36 1012.95 1012.51 1012.03 1011.55 1011.06 1010.59 1010.14 1009.72 1009.35 1009.02 1008.73 1008.46 1008.22 1008.00 1007.78 1007.57 1007.37 1007.17
1018.12 1017.97 1017.83 1017.71 1017.59 1017.47 1017.34 1017.19 1017.03 1016.85 1016.65 1016.43 1016.19 1015.92 1015.64 1015.33 1015.00 1014.64 1014.24 1013.82 1013.35 1012.86 1012.35 1011.83 1011.31 1010.80 1010.31 1009.85 1009.42 1009.03 1008.67 1008.34 1008.02 1007.71 1007.41 1007.12 1006.83 1006.55
1018.75 1018.60 1018.47 1018.36 1018.25 1018.15 1018.04 1017.92 1017.77 1017.60 1017.40 1017.16 1016.90 1016.59 1016.26 1015.89 1015.49 1015.06 1014.60 1014.12 1013.60 1013.07 1012.53 1011.98 1011.43 1010.89 1010.38 1009.89 1009.42 1008.99 1008.58 1008.18 1007.81 1007.44 1007.08 1006.72 1006.37 1006.02
1019.34 1019.21 1019.09 1018.99 1018.90 1018.81 1018.71 1018.60 1018.46 1018.28 1018.06 1017.80 1017.49 1017.14 1016.74 1016.31 1015.84 1015.34 1014.83 1014.28 1013.73 1013.16 1012.59 1012.02 1011.45 1010.90 1010.37 1009.86 1009.37 1008.90 1008.45 1008.03 1007.61 1007.21 1006.81 1006.42 1006.03 1005.65
1019.94 1019.83 1019.73 1019.64 1019.56 1019.47 1019.38 1019.26 1019.10 1018.90 1018.64 1018.34 1017.98 1017.56 1017.10 1016.61 1016.07 1015.52 1014.94 1014.36 1013.77 1013.17 1012.58 1012.00 1011.42 1010.86 1010.31 1009.78 1009.27 1008.78 1008.31 1007.86 1007.43 1007.02 1006.61 1006.21 1005.82 1005.42
1020.57 1020.48 1020.39 1020.31 1020.23 1020.14 1020.02 1019.87 1019.69 1019.44 1019.15 1018.79 1018.37 1017.89 1017.37 1016.81 1016.23 1015.62 1015.01 1014.39 1013.77 1013.16 1012.55 1011.95 1011.36 1010.78 1010.21 1009.66 1009.13 1008.62 1008.13 1007.67 1007.23 1006.82 1006.43 1006.06 1005.69 1005.33
1021.24 1021.15 1021.07 1020.98 1020.88 1020.76 1020.62 1020.43 1020.20 1019.91 1019.56 1019.14 1018.67 1018.14 1017.57 1016.96 1016.33 1015.70 1015.05 1014.41 1013.77 1013.14 1012.52 1011.90 1011.28 1010.67 1010.07 1009.48 1008.92 1008.38 1007.86 1007.39 1006.96 1006.56 1006.21 1005.88 1005.57 1005.28
Thickness
5703 5702 5701 5701 5700 5699 5698 5697 5693 5690 5691 5694 5696 5698 5698 5698 5699 5698 5698 5697 5696 5694 5693 5692 5691 5690 5688 5687 5685 5684 5682 5681 5679 5678 5676 5675 5674 5672
5698 5697 5697 5697 5697 5696 5695 5694 5693 5691 5688 5691 5692 5693 5694 5695 5695 5695 5695 5694 5693 5692 5691 5690 5689 5687 5686 5684 5683 5682 5680 5679 5677 5676 5675 5673 5672 5670
5694 5693 5693 5693 5692 5692 5692 5691 5689 5688 5685 5687 5688 5689 5689 5690 5690 5690 5691 5690 5690 5689 5688 5687 5686 5684 5683 5682 5681 5680 5678 5676 5675 5674 5673 5671 5669 5667
5690 5689 5689 5689 5688 5688 5687 5687 5686 5685 5683 5681 5683 5683 5684 5685 5685 5686 5686 5686 5686 5687 5686 5685 5683 5682 5680 5679 5679 5677 5676 5674 5673 5672 5670 5669 5667 5665
5684 5684 5684 5683 5683 5683 5682 5682 5681 5681 5680 5678 5678 5678 5679 5680 5680 5681 5681 5681 5682 5683 5682 5681 5680 5679 5679 5678 5677 5676 5675 5673 5671 5670 5668 5666 5664 5662
5679 5678 5678 5678 5677 5678 5678 5677 5677 5676 5675 5674 5673 5673 5674 5675 5675 5675 5675 5676 5677 5678 5678 5677 5677 5677 5676 5676 5675 5674 5673 5671 5669 5668 5666 5664 5662 5660
5672 5672 5673 5673 5673 5672 5673 5672 5672 5671 5670 5669 5668 5668 5668 5668 5669 5670 5670 5671 5672 5673 5673 5673 5673 5673 5673 5672 5672 5672 5671 5669 5667 5665 5664 5661 5660 5658
5665 5665 5666 5666 5667 5667 5667 5667 5667 5666 5665 5665 5665 5664 5664 5665 5665 5665 5664 5664 5665 5667 5667 5668 5668 5668 5669 5669 5670 5669 5668 5667 5665 5663 5661 5659 5657 5656
5658 5658 5659 5660 5659 5660 5660 5661 5661 5661 5661 5661 5661 5661 5661 5661 5661 5660 5660 5660 5660 5662 5661 5662 5663 5664 5665 5666 5666 5666 5665 5664 5662 5660 5658 5657 5655 5654
5650 5650 5650 5650 5651 5651 5652 5653 5654 5654 5655 5656 5657 5657 5657 5657 5657 5657 5656 5654 5655 5656 5656 5656 5658 5659 5661 5661 5662 5662 5661 5660 5659 5657 5656 5654 5653 5651
5642 5642 5642 5642 5642 5642 5644 5645 5646 5647 5648 5649 5650 5651 5651 5651 5651 5650 5649 5648 5649 5650 5650 5650 5652 5653 5655 5657 5657 5657 5656 5655 5655 5654 5653 5651 5649 5647
5634 5634 5634 5634 5634 5634 5636 5637 5638 5639 5641 5643 5643 5643 5643 5644 5644 5644 5644 5643 5643 5643 5645 5644 5646 5646 5648 5651 5651 5651 5650 5650 5650 5650 5649 5648 5645 5642
5626 5626 5626 5626 5626 5627 5628 5629 5631 5632 5633 5634 5635 5635 5636 5636 5637 5637 5638 5638 5638 5639 5640 5638 5639 5639 5640 5643 5645 5645 5645 5645 5645 5645 5644 5643 5641 5639
5619 5619 5619 5619 5619 5619 5620 5621 5622 5623 5625 5626 5627 5628 5629 5630 5631 5631 5631 5632 5633 5633 5633 5633 5633 5633 5633 5635 5637 5639 5639 5639 5639 5639 5639 5638 5636 5634
5611 5611 5611 5611 5611 5612 5612 5613 5614 5616 5617 5618 5619 5621 5622 5623 5624 5624 5625 5625 5626 5627 5627 5627 5628 5628 5628 5629 5630 5631 5631 5632 5632 5632 5632 5631 5630 5628
5604 5604 5603 5604 5604 5604 5604 5605 5607 5608 5609 5611 5612 5614 5615 5615 5615 5616 5617 5617 5618 5620 5621 5621 5622 5623 5623 5624 5624 5624 5625 5625 5625 5625 5625 5624 5623 5623
5597 5596 5596 5596 5596 5597 5597 5598 5599 5600 5601 5602 5604 5606 5606 5607 5607 5608 5609 5610 5611 5612 5613 5614 5615 5616 5617 5618 5619 5620 5619 5619 5619 5618 5617 5618 5618 5618
5589 5589 5588 5588 5589 5589 5590 5591 5592 5592 5593 5594 5595 5597 5598 5599 5599 5600 5601 5602 5603 5605 5606 5606 5607 5608 5610 5612 5612 5613 5613 5613 5613 5612 5612 5612 5614 5614
5581 5582 5581 5581 5582 5582 5582 5583 5583 5585 5585 5586 5587 5588 5589 5590 5591 5592 5593 5594 5595 5597 5597 5598 5599 5600 5602 5605 5607 5605 5606 5606 5606 5606 5606 5606 5608 5608
5574 5575 5575 5575 5575 5575 5575 5576 5576 5577 5577 5578 5579 5580 5581 5581 5582 5583 5585 5586 5587 5588 5589 5590 5591 5592 5593 5596 5597 5598 5597 5598 5599 5599 5600 5600 5600 5600
5568 5568 5569 5569 5569 5568 5568 5568 5568 5569 5569 5570 5571 5571 5572 5572 5573 5574 5576 5576 5577 5579 5581 5583 5584 5583 5585 5586 5587 5589 5589 5589 5590 5591 5592 5592 5592 5593
5562 5562 5563 5562 5562 5562 5561 5561 5561 5561 5561 5562 5562 5563 5563 5564 5564 5565 5566 5567 5569 5570 5572 5573 5574 5575 5576 5578 5580 5581 5581 5581 5581 5582 5582 5584 5585 5586
5556 5556 5556 5556 5555 5555 5555 5554 5554 5554 5554 5554 5553 5554 5554 5555 5555 5555 5557 5558 5559 5561 5562 5564 5565 5566 5568 5569 5570 5572 5572 5573 5574 5574 5575 5575 5575 5576